カタログに戻る

NOAA 16 DEB

運用中SSO
NORAD 41268·DEBRIS·🇺🇸 United States

打ち上げ Sep 21, 2000 から Vandenberg Space Force Base

Loading…

次のパス (今後24時間)

TLE

最新Source: Space-Track

元期: Sep 12, 2026, 11:42 UTC

1 41268U 00055FU  26255.48804798  .00002520  00000-0  11016-2 0  9999
2 41268  98.8584 351.0156 0023319  13.9849 346.1971 14.24589022552255

AllMySatでNOAA 16 DEBをリアルタイム追跡

Download on the App Store